Weather History for Pittsfield, IL

Change the Weather History Date:

Wednesday, November 16, 2011

  Actual Average (KUIN) Record (KUIN)
Temperature  
Mean Temperature 39 °F 42 °F  
Max Temperature 45 °F 51 °F 77 °F (1952)
Min Temperature 33 °F 34 °F 4 °F (1959)
Degree Days  
Heating Degree Days 26 23  
Month to date heating degree days 306  
Since 1 July heating degree days 730  
Cooling Degree Days 0 0  
Month to date cooling degree days 0  
Year to date cooling degree days 1093  
Moisture  
Dew Point 19 °F    
Average Humidity 44    
Maximum Humidity 65    
Minimum Humidity 26    
Precipitation  
Precipitation 0.00 in 0.09 in 1.97 in (2009)
Month to date precipitation 1.64  
Year to date precipitation 33.70  
Sea Level Pressure  
Sea Level Pressure 30.11 in    
Wind  
Wind Speed 12 mph (NNW)    
Max Wind Speed 20 mph    
Max Gust Speed 25 mph    
Visibility 10 miles    
Events      
T = Trace of Precipitation, MM = Missing Value Source: NWS Daily Summary

Daily Weather History Graph

Daily Weather History Graph

Search for Another Location

Airport:

Trip Planner

Search our weather history database for the weather conditions in past years. The results will help you decide how hot, cold, wet, or windy it might be!

Date:

Astronomy

Nov. 16, 2011 Rise Set
Actual Time 6:48 AM CST 4:47 PM CST
Civil Twilight 6:19 AM CST 5:15 PM CST
Nautical Twilight 5:46 AM CST 5:48 PM CST
Astronomical Twilight 5:14 AM CST 6:20 PM CST
Moon 10:00 PM CST (11/16) 11:24 AM CST (11/16)
Length of Visible Light 10h 56m
Length of Day
9h 58m
Waning Gibbous, 70% of the Moon is Illuminated
Nov 16
Waning Gibbous
Nov 18
Last Quarter
Nov 25
New
Dec 2
First Quarter
Dec 10
Full

Hourly Weather History & Observations

Time (CST) Temp. Windchill Dew Point Humidity Pressure Visibility Wind Dir Wind Speed Gust Speed Precip Events Conditions
12:15 AM 45.7 °F 38.6 °F 25.5 °F 45% 29.95 in 10.0 mi NNW 17.3 mph 24.2 mph N/A   Clear
12:35 AM 44.6 °F 37.2 °F 25.5 °F 47% 29.96 in 10.0 mi NNW 17.3 mph 23.0 mph N/A   Clear
12:55 AM 44.1 °F 37.1 °F 25.2 °F 47% 29.96 in 10.0 mi NNW 15.0 mph 24.2 mph N/A   Clear
1:15 AM 43.3 °F 36.1 °F 24.4 °F 47% 29.97 in 10.0 mi NNW 15.0 mph 24.2 mph N/A   Clear
1:35 AM 42.8 °F 35.8 °F 23.7 °F 47% 29.97 in 10.0 mi NNW 13.8 mph 21.9 mph N/A   Clear
1:55 AM 42.3 °F 35.9 °F 23.4 °F 47% 29.98 in 10.0 mi North 11.5 mph 18.4 mph N/A   Clear
2:15 AM 41.7 °F 34.1 °F 22.6 °F 47% 29.97 in 10.0 mi North 15.0 mph 20.7 mph N/A   Clear
2:35 AM 41.0 °F 34.3 °F 21.7 °F 46% 29.99 in 10.0 mi North 11.5 mph 16.1 mph N/A   Clear
2:55 AM 40.5 °F 33.6 °F 21.2 °F 46% 29.98 in 10.0 mi North 11.5 mph 19.6 mph N/A   Clear
3:15 AM 40.1 °F 32.7 °F 20.5 °F 45% 29.99 in 10.0 mi North 12.7 mph - N/A   Clear
3:35 AM 39.4 °F 32.3 °F 19.8 °F 45% 29.98 in 10.0 mi North 11.5 mph - N/A   Clear
3:55 AM 39.2 °F 32.5 °F 19.6 °F 45% 29.99 in 10.0 mi North 10.4 mph - N/A   Clear
4:15 AM 37.8 °F 32.5 °F 19.9 °F 49% 30.00 in 10.0 mi North 6.9 mph - N/A   Clear
4:35 AM 36.7 °F 30.5 °F 20.7 °F 52% 30.02 in 10.0 mi North 8.1 mph - N/A   Clear
4:55 AM 35.6 °F 29.9 °F 20.8 °F 55% 30.03 in 10.0 mi North 6.9 mph - N/A   Clear
5:15 AM 34.9 °F 29.0 °F 20.8 °F 57% 30.05 in 10.0 mi North 6.9 mph - N/A   Clear
5:35 AM 34.7 °F - 20.3 °F 56% 30.06 in 10.0 mi Calm Calm - N/A   Clear
5:55 AM 34.7 °F - 20.3 °F 56% 30.07 in 10.0 mi Calm Calm - N/A   Clear
6:15 AM 34.0 °F 29.8 °F 20.8 °F 59% 30.07 in 10.0 mi North 4.6 mph - N/A   Clear
6:35 AM 33.4 °F 29.1 °F 21.2 °F 61% 30.09 in 10.0 mi NNW 4.6 mph - N/A   Clear
6:55 AM 33.3 °F 28.9 °F 21.9 °F 63% 30.09 in 10.0 mi NNW 4.6 mph - N/A   Clear
7:15 AM 33.1 °F 27.7 °F 22.5 °F 65% 30.11 in 10.0 mi NNW 5.8 mph - N/A   Clear
7:35 AM 34.5 °F 29.4 °F 23.0 °F 63% 30.11 in 10.0 mi North 5.8 mph - N/A   Clear
7:55 AM 35.1 °F 29.3 °F 22.1 °F 59% 30.12 in 10.0 mi North 6.9 mph - N/A   Clear
8:15 AM 35.6 °F 29.9 °F 21.9 °F 58% 30.13 in 10.0 mi North 6.9 mph - N/A   Clear
8:35 AM 35.2 °F 31.2 °F 22.5 °F 60% 30.14 in 10.0 mi North 4.6 mph - N/A   Clear
8:55 AM 36.5 °F 31.8 °F 22.1 °F 56% 30.14 in 10.0 mi North 5.8 mph - N/A   Clear
9:15 AM 36.5 °F 30.3 °F 21.7 °F 55% 30.15 in 10.0 mi North 8.1 mph - N/A   Clear
9:35 AM 37.8 °F 31.3 °F 21.7 °F 53% 30.15 in 10.0 mi NNE 9.2 mph - N/A   Clear
9:55 AM 37.4 °F 30.3 °F 21.2 °F 52% 30.16 in 10.0 mi North 10.4 mph - N/A   Clear
10:15 AM 40.3 °F 34.4 °F 20.5 °F 45% 30.16 in 10.0 mi NNE 9.2 mph 17.3 mph N/A   Clear
10:35 AM 41.7 °F 34.4 °F 19.0 °F 40% 30.16 in 10.0 mi North 13.8 mph 19.6 mph N/A   Clear
10:55 AM 41.9 °F 34.3 °F 18.1 °F 38% 30.16 in 10.0 mi North 15.0 mph 20.7 mph N/A   Clear
11:15 AM 41.7 °F 34.4 °F 17.2 °F 37% 30.16 in 10.0 mi North 13.8 mph - N/A   Clear
11:35 AM 43.5 °F 37.5 °F 18.0 °F 36% 30.16 in 10.0 mi NNE 11.5 mph 16.1 mph N/A   Clear
11:55 AM 42.8 °F 35.1 °F 14.4 °F 32% 30.17 in 10.0 mi NNW 16.1 mph 25.3 mph N/A   Clear
12:15 PM 43.0 °F 36.4 °F 15.8 °F 33% 30.16 in 10.0 mi North 12.7 mph - N/A   Clear
12:35 PM 42.8 °F 35.4 °F 15.4 °F 33% 30.16 in 10.0 mi NNW 15.0 mph - N/A   Clear
12:55 PM 42.4 °F 35.3 °F 13.3 °F 31% 30.16 in 10.0 mi North 13.8 mph - N/A   Scattered Clouds
1:15 PM 42.4 °F 35.3 °F 11.5 °F 28% 30.17 in 10.0 mi NNW 13.8 mph 21.9 mph N/A   Scattered Clouds
1:35 PM 42.8 °F 35.4 °F 14.7 °F 32% 30.17 in 10.0 mi NNW 15.0 mph - N/A   Clear
1:55 PM 43.0 °F 36.0 °F 16.0 °F 34% 30.17 in 10.0 mi NNW 13.8 mph 20.7 mph N/A   Clear
2:15 PM 44.6 °F 37.8 °F 14.4 °F 30% 30.16 in 10.0 mi NNW 15.0 mph 20.7 mph N/A   Clear
2:35 PM 44.6 °F 36.6 °F 11.3 °F 26% 30.16 in 10.0 mi NNW 19.6 mph 23.0 mph N/A   Clear
2:55 PM 43.9 °F 36.5 °F 11.7 °F 27% 30.17 in 10.0 mi NW 16.1 mph - N/A   Scattered Clouds
3:15 PM 43.2 °F 36.2 °F 10.8 °F 27% 30.18 in 10.0 mi NNW 13.8 mph 24.2 mph N/A   Clear
3:35 PM 42.8 °F 37.0 °F 12.4 °F 29% 30.19 in 10.0 mi NNW 10.4 mph - N/A   Clear
3:55 PM 42.6 °F 36.3 °F 13.3 °F 30% 30.20 in 10.0 mi NNW 11.5 mph - N/A   Scattered Clouds
4:15 PM 42.3 °F 37.3 °F 14.4 °F 32% 30.20 in 10.0 mi NNW 8.1 mph - N/A   Scattered Clouds
4:35 PM 41.9 °F 38.2 °F 14.5 °F 33% 30.21 in 10.0 mi NNW 5.8 mph - N/A   Clear
4:55 PM 40.6 °F 36.0 °F 14.0 °F 34% 30.23 in 10.0 mi North 6.9 mph - N/A   Clear
5:15 PM 39.2 °F 34.2 °F 13.6 °F 35% 30.23 in 10.0 mi NNW 6.9 mph - N/A   Clear
5:35 PM 37.8 °F 34.2 °F 14.4 °F 38% 30.23 in 10.0 mi NNW 4.6 mph - N/A   Clear
5:55 PM 37.8 °F 34.2 °F 13.5 °F 37% 30.24 in 10.0 mi NNW 4.6 mph - N/A   Clear
6:15 PM 35.6 °F 32.8 °F 17.6 °F 48% 30.24 in 10.0 mi WNW 3.5 mph - N/A   Clear
6:35 PM 35.6 °F 32.8 °F 16.3 °F 46% 30.24 in 10.0 mi WNW 3.5 mph - N/A   Clear
6:55 PM 35.6 °F 32.8 °F 17.6 °F 48% 30.24 in 10.0 mi WNW 3.5 mph - N/A   Clear
7:15 PM 35.6 °F 32.8 °F 17.6 °F 48% 30.24 in 10.0 mi WNW 3.5 mph - N/A   Clear
7:35 PM 35.6 °F 31.7 °F 18.3 °F 50% 30.24 in 10.0 mi NW 4.6 mph - N/A   Clear
7:55 PM 35.6 °F 32.8 °F 18.5 °F 50% 30.24 in 10.0 mi NW 3.5 mph - N/A   Clear
8:15 PM 35.4 °F 31.5 °F 17.1 °F 47% 30.25 in 10.0 mi WNW 4.6 mph - N/A   Clear
8:35 PM 35.6 °F 31.7 °F 17.6 °F 48% 30.25 in 10.0 mi NW 4.6 mph - N/A   Clear
8:55 PM 34.5 °F 31.6 °F 17.2 °F 49% 30.26 in 10.0 mi WNW 3.5 mph - N/A   Scattered Clouds
9:15 PM 33.8 °F - 17.8 °F 52% 30.26 in 10.0 mi Calm Calm - N/A   Scattered Clouds
9:35 PM 34.9 °F 32.0 °F 16.0 °F 46% 30.26 in 10.0 mi WNW 3.5 mph - N/A   Scattered Clouds
9:55 PM 34.7 °F 31.8 °F 16.5 °F 48% 30.26 in 10.0 mi WNW 3.5 mph - N/A   Scattered Clouds
10:15 PM 34.0 °F 31.0 °F 18.0 °F 52% 30.27 in 10.0 mi West 3.5 mph - N/A   Scattered Clouds
10:35 PM 35.8 °F 31.9 °F 14.0 °F 41% 30.26 in 10.0 mi WNW 4.6 mph - N/A   Scattered Clouds
10:55 PM 35.4 °F - 15.6 °F 44% 30.26 in 10.0 mi Calm Calm - N/A   Scattered Clouds
11:15 PM 33.4 °F 30.4 °F 18.7 °F 55% 30.26 in 10.0 mi West 3.5 mph - N/A   Scattered Clouds
11:35 PM 33.3 °F 30.2 °F 19.0 °F 56% 30.26 in 10.0 mi West 3.5 mph - N/A   Scattered Clouds
11:55 PM 33.8 °F 30.8 °F 18.3 °F 53% 30.26 in 10.0 mi West 3.5 mph - N/A   Scattered Clouds